Location: Cedar Brake
(32.2526°N, 97.8459°W)
Time: 17:29:18
(UTC+00:00)

AQUA - Pass Details

Date: 22 April 2026
Orbit: 685 x 688 km, 98.4° (Epoch: 9 May)

Event Time Altitude Azimuth Distance (km) Brightness Sun altitude
Rises 10:16:52 0° 9° (N) 3,053 7.7 -19.9°
Reaches altitude 10° 10:19:07 10° 7° (N) 2,134 6.8 -19.5°
Maximum altitude 10:23:45 68° 285° (WNW) 736 3.7 -18.6°
Enters shadow 10:25:59 30° 210° (SSW) 1,217 4.6 -18.2°
